Time,TemperatureF,DewpointF,PressureIn,WindDirection,WindDirectionDegrees,WindSpeedMPH,WindSpeedGustMPH,Humidity,HourlyPrecipIn,Conditions,Clouds,dailyrainin,SolarRadiationWatts/m^2,SoftwareType,DateUTC
2013-07-11 00:11:00,72.0,20.0,-100.00,North,-999,-999.0,6.0,14,0.00,,,-99.99,0.000000,,2013-07-11 06:11:00,
2013-07-11 00:22:00,72.0,20.0,-100.00,North,-999,-999.0,6.0,14,0.00,,,-99.99,0.000000,,2013-07-11 06:22:00,
2013-07-11 01:45:00,77.0,25.0,-100.00,North,-999,-999.0,15.0,14,0.00,,,-99.99,0.000000,,2013-07-11 07:45:00,
2013-07-11 02:22:00,78.0,25.0,-100.00,North,-999,-999.0,13.0,14,0.00,,,-99.99,0.000000,,2013-07-11 08:22:00,
2013-07-11 02:42:00,79.0,24.0,-100.00,North,-999,-999.0,12.0,13,0.00,,,-99.99,0.000000,,2013-07-11 08:42:00,
2013-07-11 02:53:00,79.0,24.0,-100.00,North,-999,-999.0,12.0,13,0.00,,,-99.99,0.000000,,2013-07-11 08:53:00,
2013-07-11 03:02:00,80.0,25.0,-100.00,North,-999,-999.0,13.0,13,0.00,,,-99.99,0.000000,,2013-07-11 09:02:00,
2013-07-11 03:21:00,80.0,28.0,-100.00,North,-999,-999.0,14.0,15,0.00,,,-99.99,0.000000,,2013-07-11 09:21:00,
2013-07-11 04:01:00,80.0,30.0,-100.00,North,-999,-999.0,13.0,16,0.00,,,-99.99,0.000000,,2013-07-11 10:01:00,
2013-07-11 04:50:00,80.0,33.0,-100.00,North,-999,-999.0,13.0,18,0.00,,,-99.99,0.000000,,2013-07-11 10:50:00,
2013-07-11 04:52:00,80.0,32.0,-100.00,North,-999,-999.0,13.0,17,0.00,,,-99.99,0.000000,,2013-07-11 10:52:00,
2013-07-11 05:22:00,80.0,33.0,-100.00,North,-999,-999.0,13.0,18,0.00,,,-99.99,0.000000,,2013-07-11 11:22:00,
2013-07-11 05:32:00,80.0,33.0,-100.00,North,-999,-999.0,13.0,18,0.00,,,-99.99,0.000000,,2013-07-11 11:32:00,
2013-07-11 05:43:00,80.0,33.0,-100.00,North,-999,-999.0,13.0,18,0.00,,,-99.99,0.000000,,2013-07-11 11:43:00,
2013-07-11 06:22:00,78.0,34.0,-100.00,North,-999,-999.0,10.0,20,0.00,,,-99.99,2.000000,,2013-07-11 12:22:00,
2013-07-11 06:43:00,79.0,34.0,-100.00,North,-999,-999.0,14.0,19,0.00,,,-99.99,5.000000,,2013-07-11 12:43:00,
2013-07-11 06:56:00,79.0,35.0,-100.00,North,-999,-999.0,13.0,21,0.00,,,-99.99,9.000000,,2013-07-11 12:56:00,
2013-07-11 07:11:00,79.0,34.0,-100.00,North,-999,-999.0,14.0,20,0.00,,,-99.99,15.000000,,2013-07-11 13:11:00,
2013-07-11 07:44:00,79.0,35.0,-100.00,North,-999,-999.0,11.0,21,0.00,,,-99.99,65.000000,,2013-07-11 13:44:00,
2013-07-11 07:53:00,79.0,35.0,-100.00,North,-999,-999.0,11.0,21,0.00,,,-99.99,65.000000,,2013-07-11 13:53:00,
2013-07-11 08:44:00,79.0,37.0,-100.00,North,-999,-999.0,13.0,22,0.00,,,-99.99,212.000000,,2013-07-11 14:44:00,
2013-07-11 09:12:00,80.0,39.0,-100.00,North,-999,-999.0,10.0,23,0.00,,,-99.99,151.000000,,2013-07-11 15:12:00,
2013-07-11 09:22:00,80.0,39.0,-100.00,North,-999,-999.0,10.0,23,0.00,,,-99.99,151.000000,,2013-07-11 15:22:00,
2013-07-11 09:44:00,80.0,41.0,-100.00,North,-999,-999.0,9.0,25,0.00,,,-99.99,116.000000,,2013-07-11 15:44:00,
2013-07-11 10:03:00,82.0,41.0,-100.00,North,-999,-999.0,10.0,23,0.00,,,-99.99,322.000000,,2013-07-11 16:03:00,
2013-07-11 10:22:00,82.0,40.0,-100.00,North,-999,-999.0,9.0,22,0.00,,,-99.99,259.000000,,2013-07-11 16:22:00,
2013-07-11 10:33:00,82.0,40.0,-100.00,North,-999,-999.0,9.0,22,0.00,,,-99.99,259.000000,,2013-07-11 16:33:00,
2013-07-11 10:44:00,82.0,40.0,-100.00,North,-999,-999.0,9.0,22,0.00,,,-99.99,259.000000,,2013-07-11 16:44:00,
2013-07-11 11:48:00,81.0,45.0,-100.00,North,-999,-999.0,9.0,28,0.00,,,-99.99,347.000000,,2013-07-11 17:48:00,
2013-07-11 11:54:00,81.0,45.0,-100.00,North,-999,-999.0,9.0,28,0.00,,,-99.99,347.000000,,2013-07-11 17:54:00,
2013-07-11 12:22:00,82.0,47.0,-100.00,North,-999,-999.0,4.0,30,0.00,,,-99.99,462.000000,,2013-07-11 18:22:00,
2013-07-11 13:12:00,87.0,45.0,-100.00,North,-999,-999.0,5.0,23,0.00,,,-99.99,1322.000000,,2013-07-11 19:12:00,
2013-07-11 14:12:00,92.0,41.0,-100.00,North,-999,-999.0,10.0,17,0.00,,,-99.99,873.000000,,2013-07-11 20:12:00,
2013-07-11 14:22:00,90.0,41.0,-100.00,North,-999,-999.0,11.0,18,0.00,,,-99.99,400.000000,,2013-07-11 20:22:00,
2013-07-11 14:50:00,88.0,43.0,-100.00,North,-999,-999.0,21.0,21,0.00,,,-99.99,579.000000,,2013-07-11 20:50:00,
2013-07-11 14:52:00,87.0,47.0,-100.00,North,-999,-999.0,19.0,25,0.00,,,-99.99,183.000000,,2013-07-11 20:52:00,
2013-07-11 15:22:00,88.0,43.0,-100.00,North,-999,-999.0,21.0,21,0.00,,,-99.99,579.000000,,2013-07-11 21:22:00,
2013-07-11 15:33:00,88.0,43.0,-100.00,North,-999,-999.0,21.0,21,0.00,,,-99.99,579.000000,,2013-07-11 21:33:00,
2013-07-11 15:43:00,88.0,43.0,-100.00,North,-999,-999.0,21.0,21,0.00,,,-99.99,579.000000,,2013-07-11 21:43:00,
2013-07-11 16:48:00,86.0,41.0,-100.00,North,-999,-999.0,17.0,21,0.00,,,-99.99,70.000000,,2013-07-11 22:48:00,
2013-07-11 16:54:00,86.0,41.0,-100.00,North,-999,-999.0,17.0,21,0.00,,,-99.99,70.000000,,2013-07-11 22:54:00,
2013-07-11 17:11:00,78.0,51.0,-100.00,North,-999,-999.0,33.0,39,0.00,,,-99.99,157.000000,,2013-07-11 23:11:00,
2013-07-11 17:22:00,79.0,48.0,-100.00,North,-999,-999.0,27.0,34,0.00,,,-99.99,215.000000,,2013-07-11 23:22:00,
2013-07-11 17:44:00,78.0,48.0,-100.00,North,-999,-999.0,19.0,34,0.00,,,-99.99,137.000000,,2013-07-11 23:44:00,
2013-07-11 18:02:00,76.0,51.0,-100.00,North,-999,-999.0,12.0,41,0.00,,,-99.99,124.000000,,2013-07-12 00:02:00,
2013-07-11 18:22:00,76.0,50.0,-100.00,North,-999,-999.0,8.0,40,0.00,,,-99.99,150.000000,,2013-07-12 00:22:00,
2013-07-11 18:53:00,76.0,50.0,-100.00,North,-999,-999.0,16.0,41,0.00,,,-99.99,121.000000,,2013-07-12 00:53:00,
2013-07-11 19:12:00,75.0,51.0,-100.00,North,-999,-999.0,16.0,42,0.00,,,-99.99,156.000000,,2013-07-12 01:12:00,
2013-07-11 19:22:00,73.0,55.0,-100.00,North,-999,-999.0,21.0,54,0.00,,,-99.99,124.000000,,2013-07-12 01:22:00,
2013-07-11 19:44:00,66.0,59.0,-100.00,North,-999,-999.0,23.0,77,0.00,,,-99.99,51.000000,,2013-07-12 01:44:00,
2013-07-11 19:50:00,68.0,57.0,-100.00,North,-999,-999.0,13.0,66,0.00,,,-99.99,24.000000,,2013-07-12 01:50:00,
2013-07-11 19:53:00,67.0,59.0,-100.00,North,-999,-999.0,16.0,74,0.00,,,-99.99,56.000000,,2013-07-12 01:53:00,
2013-07-11 20:12:00,68.0,57.0,-100.00,North,-999,-999.0,13.0,66,0.00,,,-99.99,24.000000,,2013-07-12 02:12:00,
2013-07-11 20:33:00,68.0,57.0,-100.00,North,-999,-999.0,13.0,66,0.00,,,-99.99,24.000000,,2013-07-12 02:33:00,
2013-07-11 20:43:00,68.0,57.0,-100.00,North,-999,-999.0,13.0,66,0.00,,,-99.99,24.000000,,2013-07-12 02:43:00,
2013-07-11 22:11:00,68.0,55.0,-100.00,North,-999,-999.0,7.0,61,0.00,,,-99.99,0.000000,,2013-07-12 04:11:00,
2013-07-11 22:21:00,68.0,54.0,-100.00,North,-999,-999.0,7.0,60,0.00,,,-99.99,0.000000,,2013-07-12 04:21:00,
2013-07-11 22:43:00,68.0,54.0,-100.00,North,-999,-999.0,8.0,60,0.00,,,-99.99,0.000000,,2013-07-12 04:43:00,
2013-07-11 23:11:00,68.0,54.0,-100.00,North,-999,-999.0,10.0,62,0.00,,,-99.99,0.000000,,2013-07-12 05:11:00,
2013-07-11 23:22:00,68.0,54.0,-100.00,North,-999,-999.0,10.0,62,0.00,,,-99.99,0.000000,,2013-07-12 05:22:00,
2013-07-11 23:53:00,67.0,56.0,-100.00,North,-999,-999.0,11.0,67,0.00,,,-99.99,0.000000,,2013-07-12 05:53:00,